Theta_e
325 326 326 326 326 326 327 328 328 328 327 327 328 329 329 329 328 329 328 329 329 328 327 327 328 328 329 329 328 328 328 327 327 327 327 326 324 325 325 323 321 322
325 325 324 324 324 325 327 328 328 327 326 327 329 329 329 330 329 330 330 329 328 327 327 327 327 327 328 328 328 327 327 328 327 330 327 326 325 325 325 324 323 321
325 324 323 322 324 325 325 326 326 326 325 326 327 327 330 330 329 330 330 329 328 327 327 327 327 327 328 328 327 327 328 327 328 328 328 327 326 326 325 324 323 322
326 325 323 323 324 326 325 324 324 325 325 326 327 326 328 330 329 329 329 332 328 327 327 327 327 327 329 328 327 326 327 328 328 329 328 327 326 326 325 325 323 322
326 325 324 324 325 324 324 324 324 325 326 327 328 329 327 329 328 328 328 327 327 327 328 327 326 326 327 327 326 326 326 326 326 328 327 326 326 326 326 325 323 322
327 327 326 325 324 324 323 324 326 326 325 324 325 328 329 329 328 328 327 326 326 327 327 327 326 326 327 326 325 326 326 326 326 327 326 325 325 325 328 326 324 322
327 326 325 325 324 325 325 326 326 326 326 327 327 326 328 328 327 327 327 326 326 326 326 325 325 325 325 325 325 325 325 326 326 327 325 323 325 324 325 325 324 323
326 325 324 324 324 324 323 324 326 326 327 327 327 328 329 328 327 326 326 326 325 325 325 325 324 325 324 325 325 324 324 325 325 325 324 323 323 324 324 326 324 323
326 324 324 324 323 323 323 324 325 326 328 328 328 328 328 328 326 325 326 325 325 324 324 323 323 323 323 324 324 324 324 324 325 324 323 322 323 324 325 325 323 323
325 325 324 324 322 323 323 324 325 326 328 328 328 327 327 326 325 324 324 324 323 323 323 323 322 322 322 323 324 324 324 324 324 324 323 323 324 324 325 324 323 322
322 324 324 324 323 323 323 324 324 326 327 327 327 326 326 324 323 323 322 322 322 322 322 323 322 322 322 321 322 324 325 324 324 323 323 323 324 324 326 324 323 322
322 323 323 324 323 323 323 324 325 325 326 324 324 324 323 323 323 322 322 321 321 322 322 322 322 322 321 320 321 323 324 324 323 322 322 323 322 322 323 322 323 323
323 324 324 324 323 323 323 324 324 325 325 324 324 323 322 322 322 321 321 321 319 319 320 321 322 321 320 319 321 322 322 322 321 321 321 321 322 321 322 322 322 322
323 322 323 323 323 323 323 323 323 323 323 324 324 323 323 322 321 320 316 313 311 311 310 311 310 308 309 314 321 321 320 320 320 319 319 318 319 320 321 321 321 321
321 321 321 321 321 322 323 323 322 322 323 322 322 321 323 322 318 314 311 309 307 306 305 304 304 302 301 301 308 318 318 319 318 318 316 316 315 317 319 320 320 320
321 321 320 321 321 322 323 323 323 322 322 321 321 322 320 317 314 311 309 307 305 303 302 301 300 300 300 298 298 308 314 317 316 315 314 313 314 314 315 319 320 319
321 321 321 320 322 322 323 323 322 321 320 320 320 318 316 314 311 308 306 305 304 302 300 299 298 297 295 293 295 303 311 312 312 312 312 313 313 314 316 317 314 315
320 320 319 320 322 322 322 322 321 320 319 318 317 315 313 310 308 305 304 302 301 300 298 297 296 295 292 293 294 296 304 310 311 312 312 312 313 313 314 315 314 312
318 319 319 318 319 321 320 319 319 318 317 315 314 312 309 306 304 302 301 300 300 298 297 297 296 294 293 294 295 296 300 308 311 311 311 309 310 312 312 312 310 310
311 316 316 316 316 317 317 318 316 315 314 313 311 308 305 302 301 300 300 299 298 297 296 296 295 294 293 294 295 297 300 306 313 313 313 313 312 312 312 311 309 307
304 311 311 312 312 312 312 311 311 310 310 309 306 304 302 301 300 299 299 299 298 297 296 295 295 293 293 294 295 297 300 304 311 310 308 307 307 307 306 305 302 300
303 304 307 308 309 309 308 307 307 306 305 305 304 303 302 301 300 300 298 298 298 297 296 295 295 292 293 294 296 299 302 308 306 304 302 300 300 300 299 298 298 296
303 303 303 304 305 306 305 305 304 304 304 305 303 302 302 301 301 300 299 298 297 296 295 294 294 293 293 294 296 299 302 305 302 300 298 297 297 297 298 298 297 296
303 303 302 303 303 303 303 303 303 303 303 303 303 302 301 301 301 300 299 298 297 296 296 295 294 294 292 294 295 297 302 303 301 299 297 297 296 296 296 296 299 302
302 303 303 302 302 302 303 302 302 302 302 303 302 302 301 301 300 298 298 298 297 298 299 296 295 295 293 292 294 296 302 305 304 301 299 298 297 296 296 295 295 296
302 302 302 302 302 303 303 303 303 303 302 302 302 301 300 299 298 297 296 296 297 297 297 296 295 295 294 292 293 294 298 305 305 303 302 301 301 299 297 296 296 295
Wind_Speed
6 6 8 7 5 3 6 6 7 7 6 6 6 7 8 7 8 8 7 6 6 6 7 6 5 5 5 5 5 5 5 6 6 6 6 6 5 6 6 5 4 5
5 5 3 4 4 3 5 6 7 8 5 2 5 7 6 6 9 8 8 8 6 5 6 6 6 5 5 5 6 7 6 5 6 4 6 6 5 5 5 6 6 4
4 4 5 6 7 7 9 6 0 1 8 6 2 1 3 6 7 6 7 7 8 6 6 6 6 5 5 6 6 6 5 5 5 5 6 6 6 6 5 6 5 6
5 6 6 6 4 7 6 5 5 4 1 4 8 10 6 5 7 6 7 7 6 7 6 6 7 6 6 7 7 6 5 5 4 5 6 4 5 6 6 5 5 5
9 7 6 6 4 6 7 4 5 6 6 4 4 9 7 7 6 6 6 6 7 7 7 7 7 7 7 7 7 6 6 6 4 5 6 6 5 6 6 6 6 6
8 7 7 7 5 8 9 10 9 9 8 6 4 3 6 6 6 6 6 6 6 7 7 7 7 6 7 7 6 6 6 7 7 6 6 6 5 4 5 5 6 6
10 10 10 8 7 5 8 10 10 10 9 7 6 7 4 6 6 6 6 6 6 7 7 7 7 7 6 7 6 6 6 7 6 6 7 5 5 5 4 5 6 5
11 9 8 7 9 6 5 7 8 8 7 7 10 8 8 7 7 6 6 6 6 6 6 6 6 7 6 6 7 6 6 5 6 6 6 5 5 6 5 5 5 5
12 11 11 11 12 11 10 10 8 7 7 8 8 9 8 8 7 7 7 7 6 5 5 5 6 6 6 7 7 7 7 6 6 7 6 6 6 6 7 5 5 5
13 12 12 12 13 11 13 11 8 7 7 6 7 8 9 7 7 8 7 7 6 5 5 6 5 6 6 7 8 8 7 7 6 6 6 7 7 7 6 6 6 6
2 5 8 11 13 12 12 11 9 8 8 8 7 9 9 8 7 6 7 7 7 7 7 7 7 6 7 6 6 6 7 7 7 7 7 7 6 7 7 7 7 7
4 5 7 8 11 11 12 11 9 8 8 8 8 8 8 9 8 6 7 6 6 7 7 8 7 6 6 6 6 6 6 7 7 7 7 6 6 6 6 6 6 7
6 7 8 9 9 9 10 9 9 8 10 12 11 10 10 9 7 6 5 5 4 4 5 6 6 5 5 5 5 6 6 6 6 6 6 6 6 7 6 6 7 7
5 3 4 4 5 8 9 9 9 10 6 10 13 14 11 8 8 6 3 5 4 4 3 3 4 3 2 2 5 6 6 5 6 6 6 6 6 6 6 7 7 7
6 3 3 3 4 5 8 8 10 11 10 5 7 8 7 7 8 8 8 7 6 6 6 5 5 4 2 1 1 4 5 6 6 5 5 5 4 6 6 6 6 6
5 5 3 3 6 6 8 8 10 13 14 12 10 7 7 9 9 8 9 9 9 7 6 5 5 3 4 5 3 2 4 4 4 4 4 5 5 4 4 5 6 5
4 6 5 6 7 7 7 9 8 8 8 8 6 7 11 10 10 10 9 8 9 8 7 6 4 3 5 5 4 5 3 4 4 4 4 4 5 6 6 5 4 3
2 5 4 6 7 9 10 11 9 13 12 5 6 11 11 10 11 10 9 8 8 8 8 5 4 5 5 4 7 8 6 4 5 5 4 4 5 5 5 6 5 5
4 7 8 6 7 7 7 4 7 12 11 8 10 11 11 12 10 11 9 7 8 9 8 5 5 7 5 7 8 8 7 7 5 5 5 3 3 5 6 5 6 6
9 6 7 6 5 3 6 7 7 11 12 10 10 11 12 11 10 11 9 8 8 9 8 6 6 7 6 8 9 11 10 9 7 9 8 7 6 5 6 6 6 6
14 4 5 5 8 9 8 5 7 7 10 10 11 12 12 11 11 10 8 8 8 7 8 8 6 8 8 10 11 12 14 11 8 9 9 9 9 8 8 8 7 7
15 13 3 5 9 11 11 8 8 8 7 9 11 11 10 11 8 9 9 9 7 8 10 9 7 12 11 12 12 13 15 9 9 10 10 10 9 8 9 7 7 6
15 13 9 8 6 11 11 9 10 11 8 4 12 11 12 11 10 8 7 8 8 8 10 9 9 12 12 13 13 14 12 9 9 9 9 11 9 7 8 8 7 6
13 13 11 11 8 9 11 11 10 9 11 6 8 12 12 10 10 10 8 8 9 8 8 11 9 11 13 13 14 14 13 10 9 10 9 9 8 7 7 8 9 12
13 12 12 12 11 9 8 11 11 11 11 11 8 9 12 9 9 11 9 7 8 10 11 12 10 11 14 14 14 13 11 9 9 10 10 7 7 7 6 6 6 8
12 13 12 13 12 12 11 8 8 11 12 13 11 8 8 10 10 11 12 8 7 10 10 10 11 10 12 16 14 14 12 9 7 10 9 7 6 6 6 6 6 6
Wind_Direction
181 179 180 160 163 178 191 198 186 179 184 170 175 178 182 186 156 199 178 160 192 159 160 161 149 150 154 156 160 161 171 173 168 168 172 167 170 167 164 167 167 172
188 182 153 135 146 168 217 223 190 185 165 167 183 171 171 167 169 179 169 176 164 165 158 160 158 147 145 148 145 146 168 171 171 175 168 170 174 169 171 174 175 171
182 178 152 159 168 170 196 240 294 75 135 194 269 354 174 156 157 173 168 170 170 165 163 161 159 141 148 159 159 153 154 163 176 176 168 171 164 174 179 173 173 172
195 193 176 175 170 173 152 149 135 119 123 257 171 177 222 155 149 162 165 171 166 165 165 160 159 153 161 162 167 160 165 171 193 169 168 161 170 171 172 173 173 176
193 192 175 172 165 117 118 154 163 177 201 237 245 149 188 154 153 159 161 163 164 166 164 166 161 166 162 162 169 171 162 168 208 181 167 173 182 171 172 166 173 185
195 192 176 166 154 148 169 190 188 183 185 155 240 227 163 156 158 166 165 163 161 160 164 161 163 169 163 166 162 175 165 173 189 177 169 176 184 188 167 175 173 183
193 189 176 155 141 168 180 190 183 187 178 166 168 198 178 167 166 168 172 168 163 160 162 162 163 169 167 165 174 171 177 178 174 175 172 175 175 188 183 173 178 181
183 190 167 164 155 135 185 216 197 181 165 147 190 183 184 174 168 169 171 170 166 165 163 160 160 167 165 160 168 173 175 179 172 173 174 168 174 183 183 184 179 183
181 187 174 165 160 165 178 209 201 181 177 175 177 175 177 173 167 165 170 170 168 165 164 169 166 164 165 164 168 171 174 177 176 174 173 171 179 188 188 182 179 189
187 183 177 166 163 171 179 192 189 184 177 179 180 168 168 173 166 159 162 167 166 166 173 177 176 167 167 170 170 171 172 176 177 179 181 180 185 189 189 182 186 188
261 215 191 174 164 169 178 179 181 184 178 176 172 171 166 163 166 157 155 160 168 176 180 181 180 173 169 172 171 170 172 173 176 181 185 187 188 189 189 189 187 193
212 205 213 193 172 169 173 176 178 179 172 153 162 174 171 163 161 166 165 166 177 182 180 181 178 173 171 166 169 170 174 174 176 177 181 183 187 193 192 189 188 195
231 218 210 198 179 172 172 173 174 172 165 159 169 176 187 160 156 160 181 170 171 174 179 177 175 176 175 167 167 170 174 173 176 181 176 178 189 196 194 191 193 192
290 305 265 241 206 173 173 173 161 158 180 180 171 169 178 156 150 146 100 90 99 102 80 90 99 74 64 160 177 170 170 179 177 180 180 186 192 194 191 194 196 193
226 265 305 243 229 196 182 173 164 152 163 199 195 168 156 135 115 117 114 101 87 88 82 71 74 54 32 0 234 178 175 175 182 178 169 168 178 186 190 192 191 191
217 202 217 240 217 198 197 179 167 162 166 168 209 157 123 111 113 112 116 119 107 89 83 76 65 59 19 7 331 218 187 162 165 158 159 168 155 159 175 184 184 182
215 210 205 223 207 192 196 184 162 140 141 200 171 118 117 118 114 112 106 105 103 103 89 74 63 41 33 33 31 73 126 124 129 147 152 150 155 154 168 170 172 146
234 209 213 250 215 189 193 176 152 148 168 201 127 120 117 113 109 108 108 104 102 96 87 80 68 23 43 71 70 71 90 115 119 118 131 142 142 142 149 156 132 87
249 188 196 201 228 200 154 208 158 151 148 146 131 122 113 108 111 108 102 100 102 97 85 69 64 21 28 60 70 74 80 89 72 86 82 79 114 138 141 122 108 98
319 187 189 185 184 208 158 178 138 134 132 138 122 112 108 107 105 101 101 98 93 94 89 66 52 10 36 57 62 64 69 78 82 82 75 60 45 44 64 71 76 91
351 327 114 122 111 108 92 78 90 101 117 121 116 116 116 113 113 106 100 98 92 92 88 68 38 10 48 59 61 74 80 81 81 82 77 65 53 53 59 65 69 75
2 338 25 93 114 112 107 100 92 85 87 106 106 102 95 98 85 94 99 92 87 87 82 66 38 24 45 60 71 85 88 85 80 78 80 74 64 58 64 63 63 66
11 353 348 41 69 102 99 95 97 91 65 33 101 100 101 93 95 86 83 88 83 76 83 70 47 19 35 61 73 90 90 90 86 82 77 78 72 68 72 73 70 67
26 5 360 33 32 75 98 99 94 86 88 51 78 100 93 94 100 92 79 80 82 75 73 83 62 31 33 51 68 77 96 97 95 90 79 79 78 64 64 66 58 58
36 16 10 26 39 33 61 92 95 97 97 90 76 82 93 93 87 88 85 75 81 86 73 75 68 41 35 43 55 68 85 99 100 98 92 77 80 75 60 62 57 48
32 27 11 22 26 39 35 42 85 97 95 96 84 64 83 93 92 89 85 72 65 75 70 66 68 55 40 41 43 50 68 88 92 101 100 99 85 81 74 56 54 51